Find Starlink 11431

NORAD ID: 62890 Int'l Des: 2025-024 Owner: SPXS Country: US Constellation: starlink operational
LEOCIRCULAR

現在のビュー

3D地球を読み込み中...

Starlink 11431について

説明を読み込み中...

次回通過

Passes for default location (London). Set your location on the main map for personalized predictions.

高度履歴

Loading altitude history...

軌道要素

1 62890U 25024M 26145.51089451 .00256579 00000-0 19371-2 0 9996
2 62890 42.9996 78.8417 0000683 18.9549 341.1344 15.70899267 75549
Epoch: May 25, 2026 • Age: 22 hours

現在のステータス

高度 354.3 km
速度 7.70 km/s
衛星直下点 16.02°N, 162.76°W
打ち上げ日 Feb 4, 2025
運用期間 1.3 years
タイプ internet

技術仕様

分類 Payload
質量 960.00 kg
乾燥質量 910.00 kg
総質量 960.00 kg
長さ 0.30 m
直径 4.10 m
スパン 29.00 m
形状 Box + pan
製造者 SPXS
バスタイプ Starlink V2MD
フェーズステータス In Orbit
所有者/国 SPXS/US

Most Searched